This demonstration page uses our WeatherBlox Daily Observations layout. Learn more.

Left ArrowRight Arrow

Hourly Observations for September 9, 2017

Temp ( °F °C ) Dew Point ( °F °C ) Humidity (%) Winds ( mph kmh ) Pressure ( in mb ) Visibility ( mi km ) Precip ( " mm )
12:10 am 00:10 Cloudy 55 13 52 11 88 88 NNE 3 6 30.27 1025 10 16 N/A
12:30 am 00:30 Cloudy 55 13 54 12 94 94 NE 3 6 30.27 1025 10 16 N/A
12:50 am 00:50 Cloudy 57 14 54 12 88 88 NE 3 6 30.24 1024 10 16 N/A
1:10 am 01:10 Cloudy 57 14 54 12 88 88 NE 3 6 30.30 1026 10 16 N/A
1:30 am 01:30 Cloudy 57 14 54 12 88 88 ENE 5 7 30.30 1026 10 16 N/A
1:50 am 01:50 Cloudy 59 15 54 12 82 82 E 5 7 30.27 1025 10 16 N/A
2:10 am 02:10 Cloudy 59 15 54 12 82 82 E 3 6 30.27 1025 10 16 N/A
2:30 am 02:30 Cloudy 57 14 54 12 88 88 ENE 5 7 30.30 1026 10 16 N/A
2:50 am 02:50 Cloudy 57 14 54 12 88 88 N N/A 30.30 1026 10 16 N/A
3:10 am 03:10 Cloudy 57 14 54 12 88 88 N N/A 30.30 1026 10 16 N/A
3:30 am 03:30 Mostly Cloudy 57 14 54 12 88 88 NE 3 6 30.30 1026 10 16 N/A
3:50 am 03:50 Mostly Cloudy 55 13 54 12 94 94 N N/A 30.30 1026 10 16 N/A
4:10 am 04:10 Mostly Cloudy 55 13 54 12 94 94 N N/A 30.30 1026 10 16 N/A
4:30 am 04:30 Mostly Cloudy 55 13 54 12 94 94 NE 6 9 30.30 1026 10 16 N/A
4:50 am 04:50 Cloudy 55 13 54 12 94 94 NNE 3 6 30.30 1026 10 16 N/A
5:10 am 05:10 Mostly Cloudy 55 13 54 12 94 94 NE 6 9 30.30 1026 10 16 N/A
5:30 am 05:30 Partly Cloudy 54 12 52 11 94 94 NNE 5 7 30.33 1027 10 16 N/A
5:49 am 05:49 Mostly Cloudy 54 12 52 11 94 94 NE 3 6 30.33 1027 10 16 N/A
6:10 am 06:10 Cloudy 55 13 52 11 88 88 ENE 3 6 30.33 1027 10 16 N/A
6:30 am 06:30 Cloudy 55 13 54 12 94 94 ENE 5 7 30.33 1027 10 16 N/A
6:50 am 06:50 Mostly Cloudy 54 12 52 11 94 94 ENE 5 7 30.33 1027 10 16 N/A
7:10 am 07:10 Cloudy 55 13 54 12 94 94 NE 5 7 30.33 1027 10 16 N/A
7:30 am 07:30 Cloudy 54 12 52 11 94 94 ENE 5 7 30.36 1028 10 16 N/A
7:50 am 07:50 Mostly Cloudy 54 12 52 11 94 94 ENE 5 7 30.36 1028 10 16 N/A
8:10 am 08:10 Mostly Cloudy 54 12 52 11 94 94 E 6 9 30.36 1028 10 16 N/A
8:30 am 08:30 Cloudy 55 13 52 11 88 88 E 8 13 30.36 1028 10 16 N/A
8:50 am 08:50 Cloudy 59 15 52 11 77 77 E 7 11 30.36 1028 10 16 N/A
9:10 am 09:10 Mostly Cloudy 57 14 50 10 77 77 E 9 15 30.39 1029 10 16 N/A
9:30 am 09:30 Partly Cloudy 59 15 52 11 77 77 E 10 17 30.36 1028 10 16 N/A
9:50 am 09:50 Sunny 61 16 52 11 72 72 E 9 15 30.36 1028 10 16 N/A
10:10 am 10:10 Sunny 61 16 52 11 72 72 E 10 17 30.36 1028 10 16 N/A
10:30 am 10:30 Sunny 63 17 52 11 68 68 E 9 15 30.36 1028 10 16 N/A
10:50 am 10:50 Sunny 63 17 52 11 68 68 E 9 15 30.39 1029 10 16 N/A
11:10 am 11:10 Sunny 64 18 52 11 64 64 E 9 15 30.39 1029 10 16 N/A
11:29 am 11:29 Sunny 64 18 52 11 64 64 ENE 10 17 30.39 1029 10 16 N/A
11:50 am 11:50 Sunny 66 19 52 11 60 60 E 13 20 30.39 1029 10 16 N/A
12:10 pm 12:10 Sunny 66 19 50 10 56 56 E 10 17 30.39 1029 10 16 N/A
12:29 pm 12:29 Sunny 68 20 50 10 53 53 E 10 17 30.39 1029 10 16 N/A
12:50 pm 12:50 Sunny 68 20 50 10 53 53 ENE 9 15 30.39 1029 10 16 N/A
1:10 pm 13:10 Sunny 70 21 50 10 50 50 ENE 10 17 30.39 1029 10 16 N/A
1:29 pm 13:29 Partly Cloudy 70 21 50 10 50 50 ENE 9 15 30.36 1028 10 16 N/A
1:50 pm 13:50 Partly Cloudy 70 21 50 10 50 50 NE 7 11 30.36 1028 10 16 N/A
2:10 pm 14:10 Partly Cloudy 70 21 50 10 50 50 NE 8 13 30.36 1028 10 16 N/A
2:29 pm 14:29 Partly Cloudy 70 21 52 11 53 53 E 9 15 30.36 1028 10 16 N/A
2:50 pm 14:50 Partly Cloudy 70 21 50 10 50 50 E 6 9 30.36 1028 10 16 N/A
3:09 pm 15:09 Partly Cloudy 72 22 52 11 50 50 ENE 13 20 30.36 1028 10 16 N/A
3:30 pm 15:30 Partly Cloudy 72 22 50 10 47 47 ENE 8 13 30.33 1027 10 16 N/A
3:50 pm 15:50 Partly Cloudy 70 21 48 9 46 46 NNE 13 20 30.33 1027 10 16 N/A
4:10 pm 16:10 Partly Cloudy 70 21 48 9 46 46 ENE 6 9 30.33 1027 10 16 N/A
4:30 pm 16:30 Partly Cloudy 70 21 48 9 46 46 ENE 7 11 30.33 1027 10 16 N/A
4:50 pm 16:50 Sunny 72 22 46 8 41 41 NE 10 17 30.33 1027 10 16 N/A
5:10 pm 17:10 Sunny 72 22 43 6 36 36 NE 10 17 30.33 1027 10 16 N/A
5:30 pm 17:30 Sunny 72 22 43 6 36 36 E 10 17 30.30 1026 10 16 N/A
5:50 pm 17:50 Sunny 70 21 41 5 35 35 NE 9 15 30.30 1026 10 16 N/A
6:10 pm 18:10 Sunny 70 21 41 5 35 35 NE 12 19 30.30 1026 10 16 N/A
6:30 pm 18:30 Sunny 70 21 41 5 35 35 NE 9 15 30.30 1026 10 16 N/A
6:50 pm 18:50 Sunny 68 20 41 5 38 38 ENE 9 15 30.30 1026 10 16 N/A
7:10 pm 19:10 Sunny 68 20 41 5 38 38 ENE 6 9 30.30 1026 10 16 N/A
7:30 pm 19:30 Sunny 64 18 43 6 46 46 ENE 6 9 30.30 1026 10 16 N/A
7:50 pm 19:50 Sunny 63 17 45 7 52 52 ENE 5 7 30.30 1026 10 16 N/A
8:10 pm 20:10 Clear 57 14 46 8 67 67 ENE 6 9 30.33 1027 10 16 N/A
8:30 pm 20:30 Clear 55 13 45 7 67 67 ENE 6 9 30.33 1027 10 16 N/A
8:50 pm 20:50 Clear 54 12 46 8 77 77 ENE 5 7 30.33 1027 10 16 N/A
9:10 pm 21:10 Clear 54 12 46 8 77 77 N N/A 30.36 1028 10 16 N/A
9:30 pm 21:30 Clear 52 11 45 7 77 77 ENE 3 6 30.36 1028 10 16 N/A
9:50 pm 21:50 Clear 52 11 45 7 77 77 ENE 5 7 30.36 1028 10 16 N/A
10:10 pm 22:10 Clear 52 11 45 7 77 77 N N/A 30.36 1028 10 16 N/A
10:30 pm 22:30 Clear 50 10 45 7 82 82 N N/A 30.36 1028 10 16 N/A
10:50 pm 22:50 Clear 50 10 45 7 82 82 N N/A 30.36 1028 10 16 N/A
11:10 pm 23:10 Clear 48 9 45 7 87 87 NE 5 7 30.36 1028 10 16 N/A
11:30 pm 23:30 Clear 46 8 45 7 93 93 NE 6 9 30.39 1029 10 16 N/A
11:50 pm 23:50 Clear 48 9 45 7 87 87 ENE 7 11 30.39 1029 10 16 N/A

Powered by AerisWeather